User: anonymous   Login
Location: Unspecified
(0.0000°N, 0.0000°E)
Time: 18:10:16
(UTC+02:00)
Language:

ARIANE 5 R/B - Orbit

View from above orbital plane
View from above orbital plane
View from above satellite
View from above satellite

Ground track
Ground track

The orbit data is extracted from the following two-line orbital elements,

1 29646U 06054D   16147.38973486  .00004431  00000-0  85359-3 0  9994
2 29646   2.5643 139.8791 7123107 323.9943   4.4070  2.48940062 82012
Epoch (UTC): 26 May 2016 09:21:13
Eccentricity: 0.7123107
inclination: 2.5643°
perigee height: 238 km
apogee height: 32999 km
right ascension of ascending node: 139.8791°
argument of perigee: 323.9943°
revolutions per day: 2.48940062
mean anomaly at epoch: 4.4070°
orbit number at epoch: 8201

The dashed part of the orbit path shows where the satellite is in the earth's shadow,  

DLR